THOR ABLESTAR DEB, 410

Orbit data source: Space-Track

THOR ABLESTAR DEB, 410 is space debris in LEO originally from a launch on Thu, 29 Jun 1961 UTC launched from the Air Force Eastern Test Range (AFETR). Debris objects in space refer to the collection of defunct objects orbiting the Earth. Examples of debris include non-operational satellites, rocket bodies, and fragments generated from explosions, collisions, or faulty payload assembly.

Loading next visibility...
Identifier
410, 1961-015EK
Orbit
LEO
Country
Flag of USUS
Related business
Manufacturer
Unknown
Mission
Spacecraft
Bus & Motor
Unknown
Mass
Unknown
Launch date (UTC)
1961-06-29 (65 years ago)
Launch vehicle
Unknown
Launch site
Air Force Eastern Test Range (AFETR)
Object type
Payload
Rocket body
Debris
Shape & HBR
Unknown shape, 0.2 m
Radar Cross Section
Medium (>0.1 m² and <1 m²)

Expand to show TLE details & history
Last TLE update: 6 hours ago

TLE from 6 hours ago
0 THOR ABLESTAR DEB
1 00410U 61015EK  26208.29645345  .00000003  00000-0  78950-4 0  9990
2 00410  66.6944 302.7982 0018048 318.5441  74.3986 13.76619812265598
Epoch: 2026-07-27T07:06Z
TLE epoch observation values (Epoch: 2026-07-27T07:06:53.578Z)
Latitude
30.20553°
Longitude
-94.46072°
Altitude
975.292 km
Speed
7.369 km/s
True Right ascension
21h 08m 58s
True Declination
30° 03' 38"
Sunlit
Object was in full shadow at epoch
Visualization orbit readout
Latitude
Unknown
Longitude
Unknown
Altitude
Unknown
Speed
Unknown
Apparent Right ascension
Unknown
Apparent Declination
Unknown
Sunlit
N/A
Visualization observer readout
Local Sidereal Time
02:21:46
Azimuth
Unknown
Elevation
Unknown
Doppler factor
Unknown
Orbital elements
Apogee altitude
987.587 km
Perigee altitude
961.047 km
Semi-major axis
7,352.454 km
Eccentricity
0.0018
Inclination
66.6944°
RAAN
302.7982°
Arg. of periapsis
318.5441°
True anomaly
74.59792°
Mean anomaly
74.3986°
Eccentric anomaly
74.49825°
Mean motion
3.44266 °/min
Orbital period
104.57 mins
BSTAR
0.00007895
Loading maneuver chart data...
Computing Atmospheric mass density...

Documentation

Showing up to 5 results
|